Time,TemperatureF,DewpointF,PressureIn,WindDirection,WindDirectionDegrees,WindSpeedMPH,WindSpeedGustMPH,Humidity,HourlyPrecipIn,Conditions,Clouds,dailyrainin,SoftwareType,DateUTC
2013-07-10 00:02:00,72.5,36.7,29.96,West,276,0.0,0.0,27,0.00,,,0.00,meteohub,2013-07-10 07:02:00,
2013-07-10 00:07:00,72.3,35.6,29.95,West,277,0.0,0.0,26,0.00,,,0.00,meteohub,2013-07-10 07:07:00,
2013-07-10 00:12:00,72.3,35.6,29.95,NNW,329,0.0,0.0,26,0.00,,,0.00,meteohub,2013-07-10 07:12:00,
2013-07-10 00:17:00,72.3,35.6,29.95,NNW,332,0.0,0.0,26,0.00,,,0.00,meteohub,2013-07-10 07:17:00,
2013-07-10 00:22:00,72.3,35.6,29.95,NNW,330,0.0,0.0,26,0.00,,,0.00,meteohub,2013-07-10 07:22:00,
2013-07-10 00:27:00,72.3,35.6,29.95,NNW,330,0.0,0.0,26,0.00,,,0.00,meteohub,2013-07-10 07:27:00,
2013-07-10 00:32:00,72.1,35.4,29.95,NNW,332,0.0,0.0,26,0.00,,,0.00,meteohub,2013-07-10 07:32:00,
2013-07-10 00:37:00,72.1,35.4,29.95,NNW,332,0.0,0.0,26,0.00,,,0.00,meteohub,2013-07-10 07:37:00,
2013-07-10 00:42:00,72.3,35.6,29.94,West,278,0.0,0.0,26,0.00,,,0.00,meteohub,2013-07-10 07:42:00,
2013-07-10 00:47:00,72.1,35.4,29.94,West,278,0.0,0.0,26,0.00,,,0.00,meteohub,2013-07-10 07:47:00,
2013-07-10 00:52:00,72.0,35.2,29.94,West,277,0.0,0.0,26,0.00,,,0.00,meteohub,2013-07-10 07:52:00,
2013-07-10 00:57:00,71.8,35.1,29.94,West,277,0.0,0.0,26,0.00,,,0.00,meteohub,2013-07-10 07:57:00,
2013-07-10 01:02:00,71.4,34.7,29.94,West,277,0.0,0.0,26,0.00,,,0.00,meteohub,2013-07-10 08:02:00,
2013-07-10 01:07:00,71.6,34.9,29.94,West,276,0.0,0.0,26,0.00,,,0.00,meteohub,2013-07-10 08:07:00,
2013-07-10 01:12:00,71.6,34.9,29.94,West,278,0.0,0.0,26,0.00,,,0.00,meteohub,2013-07-10 08:12:00,
2013-07-10 01:17:00,71.6,34.9,29.94,West,278,0.0,0.0,26,0.00,,,0.00,meteohub,2013-07-10 08:17:00,
2013-07-10 01:22:00,71.4,34.7,29.94,West,278,0.0,0.0,26,0.00,,,0.00,meteohub,2013-07-10 08:22:00,
2013-07-10 01:27:00,71.8,35.1,29.94,West,278,0.0,0.0,26,0.00,,,0.00,meteohub,2013-07-10 08:27:00,
2013-07-10 01:32:00,72.0,35.2,29.94,West,278,0.0,0.0,26,0.00,,,0.00,meteohub,2013-07-10 08:32:00,
2013-07-10 01:37:00,72.3,34.5,29.93,North,351,0.0,0.0,25,0.00,,,0.00,meteohub,2013-07-10 08:37:00,
2013-07-10 01:42:00,72.5,35.6,29.93,North,352,0.0,0.0,26,0.00,,,0.00,meteohub,2013-07-10 08:42:00,
2013-07-10 01:47:00,72.5,35.6,29.94,North,352,0.0,0.0,26,0.00,,,0.00,meteohub,2013-07-10 08:47:00,
2013-07-10 01:52:00,72.3,35.6,29.94,North,352,0.0,0.0,26,0.00,,,0.00,meteohub,2013-07-10 08:52:00,
2013-07-10 01:57:00,72.3,35.6,29.94,North,352,0.0,0.0,26,0.00,,,0.00,meteohub,2013-07-10 08:57:00,
2013-07-10 02:02:00,72.1,35.4,29.93,NNW,339,0.0,0.0,26,0.00,,,0.00,meteohub,2013-07-10 09:02:00,
2013-07-10 02:07:00,72.3,35.6,29.93,NNW,339,0.0,0.0,26,0.00,,,0.00,meteohub,2013-07-10 09:07:00,
2013-07-10 02:12:00,72.7,34.9,29.94,NNW,339,0.0,0.0,25,0.00,,,0.00,meteohub,2013-07-10 09:12:00,
2013-07-10 02:17:00,72.9,35.1,29.93,NNE,31,0.0,0.0,25,0.00,,,0.00,meteohub,2013-07-10 09:17:00,
2013-07-10 02:22:00,72.9,35.1,29.93,NNE,30,0.0,0.0,25,0.00,,,0.00,meteohub,2013-07-10 09:22:00,
2013-07-10 02:27:00,72.9,35.1,29.93,NNE,30,0.0,0.0,25,0.00,,,0.00,meteohub,2013-07-10 09:27:00,
2013-07-10 02:32:00,72.9,35.1,29.93,NNE,30,0.0,0.0,25,0.00,,,0.00,meteohub,2013-07-10 09:32:00,
2013-07-10 02:37:00,72.7,34.9,29.93,NNE,30,0.0,0.0,25,0.00,,,0.00,meteohub,2013-07-10 09:37:00,
2013-07-10 02:42:00,72.7,34.9,29.92,NNE,30,0.0,0.0,25,0.00,,,0.00,meteohub,2013-07-10 09:42:00,
2013-07-10 02:47:00,72.9,35.1,29.92,NNE,30,0.0,0.0,25,0.00,,,0.00,meteohub,2013-07-10 09:47:00,
2013-07-10 02:52:00,72.9,35.1,29.92,NNE,30,0.0,0.0,25,0.00,,,0.00,meteohub,2013-07-10 09:52:00,
2013-07-10 02:57:00,72.9,35.1,29.92,NNE,30,0.0,0.0,25,0.00,,,0.00,meteohub,2013-07-10 09:57:00,
2013-07-10 03:02:00,72.9,35.1,29.92,NNE,30,0.0,0.0,25,0.00,,,0.00,meteohub,2013-07-10 10:02:00,
2013-07-10 03:07:00,72.7,34.9,29.92,NNE,30,0.0,0.0,25,0.00,,,0.00,meteohub,2013-07-10 10:07:00,
2013-07-10 03:12:00,72.7,34.9,29.91,NNE,30,0.0,0.0,25,0.00,,,0.00,meteohub,2013-07-10 10:12:00,
2013-07-10 03:17:00,72.7,34.9,29.92,NNE,30,0.0,0.0,25,0.00,,,0.00,meteohub,2013-07-10 10:17:00,
2013-07-10 03:22:00,72.7,35.8,29.91,NNE,30,0.0,0.0,26,0.00,,,0.00,meteohub,2013-07-10 10:22:00,
2013-07-10 03:27:00,72.3,35.6,29.91,NNE,30,0.0,0.0,26,0.00,,,0.00,meteohub,2013-07-10 10:27:00,
2013-07-10 03:32:00,72.1,35.4,29.91,NNE,31,0.0,0.0,26,0.00,,,0.00,meteohub,2013-07-10 10:32:00,
2013-07-10 03:37:00,72.1,35.4,29.91,NNE,31,0.0,0.0,26,0.00,,,0.00,meteohub,2013-07-10 10:37:00,
2013-07-10 03:42:00,72.3,35.6,29.91,NNE,31,0.0,0.0,26,0.00,,,0.00,meteohub,2013-07-10 10:42:00,
2013-07-10 03:47:00,72.1,35.4,29.91,NNE,31,0.0,0.0,26,0.00,,,0.00,meteohub,2013-07-10 10:47:00,
2013-07-10 03:52:00,72.1,35.4,29.91,NNE,29,0.0,0.0,26,0.00,,,0.00,meteohub,2013-07-10 10:52:00,
2013-07-10 03:57:00,72.3,35.6,29.91,NNE,29,0.0,0.0,26,0.00,,,0.00,meteohub,2013-07-10 10:57:00,
2013-07-10 04:02:00,72.7,34.9,29.91,NNE,15,0.0,0.0,25,0.00,,,0.00,meteohub,2013-07-10 11:02:00,
2013-07-10 04:12:00,72.9,35.1,29.91,NNE,27,0.0,0.0,25,0.00,,,0.00,meteohub,2013-07-10 11:12:00,
2013-07-10 04:17:00,72.7,34.9,29.91,NNE,22,0.0,0.0,25,0.00,,,0.00,meteohub,2013-07-10 11:17:00,
2013-07-10 04:22:00,72.7,34.9,29.91,NNE,20,0.0,0.0,25,0.00,,,0.00,meteohub,2013-07-10 11:22:00,
2013-07-10 04:27:00,72.7,35.8,29.91,NNE,24,0.0,0.0,26,0.00,,,0.00,meteohub,2013-07-10 11:27:00,
2013-07-10 04:32:00,72.7,34.9,29.91,NNE,22,0.0,0.0,25,0.00,,,0.00,meteohub,2013-07-10 11:32:00,
2013-07-10 04:37:00,72.7,34.9,29.91,NNE,22,0.0,0.0,25,0.00,,,0.00,meteohub,2013-07-10 11:37:00,
2013-07-10 04:42:00,72.7,34.9,29.91,NNE,22,0.0,0.0,25,0.00,,,0.00,meteohub,2013-07-10 11:42:00,
2013-07-10 04:47:00,72.7,33.8,29.91,NNE,22,0.0,0.0,24,0.00,,,0.00,meteohub,2013-07-10 11:47:00,
2013-07-10 04:52:00,72.9,34.0,29.91,NNE,17,0.0,0.0,24,0.00,,,0.00,meteohub,2013-07-10 11:52:00,
2013-07-10 04:57:00,73.0,34.2,29.91,NNE,18,0.0,0.0,24,0.00,,,0.00,meteohub,2013-07-10 11:57:00,
2013-07-10 05:02:00,73.0,34.2,29.91,NNE,18,0.0,0.0,24,0.00,,,0.00,meteohub,2013-07-10 12:02:00,
2013-07-10 05:07:00,73.0,34.2,29.91,NNE,19,0.0,0.0,24,0.00,,,0.00,meteohub,2013-07-10 12:07:00,
2013-07-10 05:12:00,73.0,34.2,29.91,NNE,19,0.0,0.0,24,0.00,,,0.00,meteohub,2013-07-10 12:12:00,
2013-07-10 05:17:00,73.0,34.2,29.91,NNE,18,0.0,0.0,24,0.00,,,0.00,meteohub,2013-07-10 12:17:00,
2013-07-10 05:22:00,73.0,34.2,29.91,NNE,25,0.0,0.0,24,0.00,,,0.00,meteohub,2013-07-10 12:22:00,
2013-07-10 05:27:00,73.2,34.3,29.91,NNE,30,0.0,0.0,24,0.00,,,0.00,meteohub,2013-07-10 12:27:00,
2013-07-10 05:32:00,73.2,34.3,29.91,NNE,30,0.0,0.0,24,0.00,,,0.00,meteohub,2013-07-10 12:32:00,
2013-07-10 05:37:00,73.4,34.3,29.91,NNE,20,0.0,0.0,24,0.00,,,0.00,meteohub,2013-07-10 12:37:00,
2013-07-10 05:42:00,73.2,34.3,29.91,NNE,20,0.0,0.0,24,0.00,,,0.00,meteohub,2013-07-10 12:42:00,
2013-07-10 05:47:00,72.9,34.0,29.91,NNE,20,0.0,0.0,24,0.00,,,0.00,meteohub,2013-07-10 12:47:00,
2013-07-10 05:52:00,72.7,33.8,29.91,NNE,19,0.0,0.0,24,0.00,,,0.00,meteohub,2013-07-10 12:52:00,
2013-07-10 05:57:00,72.3,34.5,29.91,NNE,19,0.0,0.0,25,0.00,,,0.00,meteohub,2013-07-10 12:57:00,
2013-07-10 06:02:00,72.1,34.3,29.91,NNE,25,0.0,0.0,25,0.00,,,0.00,meteohub,2013-07-10 13:02:00,
2013-07-10 06:07:00,72.0,34.2,29.91,NNE,24,0.0,0.0,25,0.00,,,0.00,meteohub,2013-07-10 13:07:00,
2013-07-10 06:12:00,72.1,34.3,29.91,NNE,24,0.0,0.0,25,0.00,,,0.00,meteohub,2013-07-10 13:12:00,
2013-07-10 06:17:00,72.1,34.3,29.91,NNE,24,0.0,0.0,25,0.00,,,0.00,meteohub,2013-07-10 13:17:00,
2013-07-10 06:22:00,72.1,34.3,29.91,NNE,22,0.0,0.0,25,0.00,,,0.00,meteohub,2013-07-10 13:22:00,
2013-07-10 06:27:00,72.3,34.5,29.91,NNE,22,0.0,0.0,25,0.00,,,0.00,meteohub,2013-07-10 13:27:00,
2013-07-10 06:32:00,72.5,34.7,29.91,SW,233,0.0,0.0,25,0.00,,,0.00,meteohub,2013-07-10 13:32:00,
2013-07-10 06:37:00,72.7,35.8,29.91,SW,232,0.0,0.0,26,0.00,,,0.00,meteohub,2013-07-10 13:37:00,
2013-07-10 06:42:00,72.7,36.9,29.91,SW,233,0.0,0.0,27,0.00,,,0.00,meteohub,2013-07-10 13:42:00,
2013-07-10 06:47:00,72.5,36.7,29.91,SW,231,0.0,0.0,27,0.00,,,0.00,meteohub,2013-07-10 13:47:00,
2013-07-10 06:52:00,72.7,36.9,29.91,SW,231,0.0,0.0,27,0.00,,,0.00,meteohub,2013-07-10 13:52:00,
2013-07-10 06:57:00,72.9,36.9,29.91,SW,233,0.0,0.0,27,0.00,,,0.00,meteohub,2013-07-10 13:57:00,
2013-07-10 07:02:00,72.9,38.7,29.91,SW,233,0.0,0.0,29,0.00,,,0.00,meteohub,2013-07-10 14:02:00,
2013-07-10 07:07:00,73.0,37.9,29.91,SW,234,0.0,0.0,28,0.00,,,0.00,meteohub,2013-07-10 14:07:00,
2013-07-10 07:12:00,73.0,37.0,29.91,SW,233,0.0,0.0,27,0.00,,,0.00,meteohub,2013-07-10 14:12:00,
2013-07-10 07:17:00,73.4,38.3,29.91,SW,234,0.0,0.0,28,0.00,,,0.00,meteohub,2013-07-10 14:17:00,
2013-07-10 07:22:00,73.8,37.8,29.92,WNW,286,0.0,0.0,27,0.00,,,0.00,meteohub,2013-07-10 14:22:00,
2013-07-10 07:27:00,74.1,36.0,29.92,WNW,288,0.0,0.0,25,0.00,,,0.00,meteohub,2013-07-10 14:27:00,
2013-07-10 07:32:00,74.7,42.1,29.92,WNW,288,0.0,0.0,31,0.00,,,0.00,meteohub,2013-07-10 14:32:00,
2013-07-10 07:37:00,74.8,43.0,29.91,WNW,288,0.0,0.0,32,0.00,,,0.00,meteohub,2013-07-10 14:37:00,
2013-07-10 07:42:00,75.4,45.9,29.91,NE,39,0.0,0.0,35,0.00,,,0.00,meteohub,2013-07-10 14:42:00,
2013-07-10 07:47:00,76.1,40.6,29.91,NE,48,0.0,0.0,28,0.00,,,0.00,meteohub,2013-07-10 14:47:00,
2013-07-10 07:52:00,76.5,41.0,29.91,NE,37,0.0,0.0,28,0.00,,,0.00,meteohub,2013-07-10 14:52:00,
2013-07-10 07:57:00,76.8,43.0,29.91,NE,49,0.0,0.0,30,0.00,,,0.00,meteohub,2013-07-10 14:57:00,
2013-07-10 08:02:00,77.2,39.6,29.92,NNE,30,1.0,2.0,26,0.00,,,0.00,meteohub,2013-07-10 15:02:00,
2013-07-10 08:07:00,77.7,42.1,29.92,NNE,30,0.0,3.0,28,0.00,,,0.00,meteohub,2013-07-10 15:07:00,
2013-07-10 08:12:00,77.7,41.0,29.92,NNE,17,0.0,3.0,27,0.00,,,0.00,meteohub,2013-07-10 15:12:00,
2013-07-10 08:17:00,78.3,41.5,29.92,NNE,18,0.0,2.0,27,0.00,,,0.00,meteohub,2013-07-10 15:17:00,
2013-07-10 08:22:00,78.4,38.7,29.92,NE,51,0.0,0.0,24,0.00,,,0.00,meteohub,2013-07-10 15:22:00,
2013-07-10 08:27:00,79.0,36.9,29.92,NNW,342,2.0,4.0,22,0.00,,,0.00,meteohub,2013-07-10 15:27:00,
2013-07-10 08:32:00,79.2,38.1,29.92,WNW,283,2.0,4.0,23,0.00,,,0.00,meteohub,2013-07-10 15:32:00,
2013-07-10 08:37:00,78.6,37.8,29.92,NNW,338,0.0,4.0,23,0.00,,,0.00,meteohub,2013-07-10 15:37:00,
2013-07-10 08:42:00,78.4,38.7,29.92,NNW,339,0.0,4.0,24,0.00,,,0.00,meteohub,2013-07-10 15:42:00,
2013-07-10 08:47:00,78.6,39.9,29.92,NNE,24,0.0,4.0,25,0.00,,,0.00,meteohub,2013-07-10 15:47:00,
2013-07-10 08:52:00,78.1,38.3,29.92,West,265,0.0,0.0,24,0.00,,,0.00,meteohub,2013-07-10 15:52:00,
2013-07-10 08:57:00,77.7,40.1,29.91,West,269,0.0,0.0,26,0.00,,,0.00,meteohub,2013-07-10 15:57:00,
2013-07-10 09:02:00,77.4,41.7,29.91,West,269,0.0,0.0,28,0.00,,,0.00,meteohub,2013-07-10 16:02:00,
2013-07-10 09:07:00,77.2,45.0,29.91,West,269,0.0,0.0,32,0.00,,,0.00,meteohub,2013-07-10 16:07:00,
2013-07-10 09:12:00,77.2,45.0,29.91,West,269,0.0,0.0,32,0.00,,,0.00,meteohub,2013-07-10 16:12:00,
2013-07-10 09:17:00,76.6,42.8,29.91,West,281,0.0,0.0,30,0.00,,,0.00,meteohub,2013-07-10 16:17:00,
2013-07-10 09:22:00,76.6,38.1,29.91,West,269,0.0,0.0,25,0.00,,,0.00,meteohub,2013-07-10 16:22:00,
2013-07-10 09:27:00,77.2,41.5,29.91,West,277,0.0,0.0,28,0.00,,,0.00,meteohub,2013-07-10 16:27:00,
2013-07-10 09:32:00,77.9,43.2,29.91,ENE,73,0.0,0.0,29,0.00,,,0.00,meteohub,2013-07-10 16:32:00,
2013-07-10 09:37:00,78.4,46.2,29.91,WNW,285,0.0,0.0,32,0.00,,,0.00,meteohub,2013-07-10 16:37:00,
2013-07-10 09:42:00,79.0,45.0,29.90,WNW,285,0.0,0.0,30,0.00,,,0.00,meteohub,2013-07-10 16:42:00,
2013-07-10 09:47:00,79.5,43.5,29.90,NNW,348,0.0,0.0,28,0.00,,,0.00,meteohub,2013-07-10 16:47:00,
2013-07-10 09:57:00,79.7,41.7,29.90,NE,56,0.0,2.0,26,0.00,,,0.00,meteohub,2013-07-10 16:57:00,
2013-07-10 10:02:00,79.9,43.9,29.90,ENE,68,0.0,2.0,28,0.00,,,0.00,meteohub,2013-07-10 17:02:00,
2013-07-10 10:07:00,79.9,41.9,29.90,West,271,0.0,2.0,26,0.00,,,0.00,meteohub,2013-07-10 17:07:00,
2013-07-10 10:12:00,80.2,42.3,29.90,NNE,27,0.0,0.0,26,0.00,,,0.00,meteohub,2013-07-10 17:12:00,
2013-07-10 10:17:00,81.0,40.8,29.89,ENE,61,0.0,0.0,24,0.00,,,0.00,meteohub,2013-07-10 17:17:00,
2013-07-10 10:22:00,81.3,43.2,29.90,ENE,73,0.0,0.0,26,0.00,,,0.00,meteohub,2013-07-10 17:22:00,
2013-07-10 10:27:00,81.1,41.0,29.90,WNW,292,0.0,3.0,24,0.00,,,0.00,meteohub,2013-07-10 17:27:00,
2013-07-10 10:32:00,81.1,37.6,29.90,SW,217,0.0,3.0,21,0.00,,,0.00,meteohub,2013-07-10 17:32:00,
2013-07-10 10:37:00,81.3,39.9,29.90,SW,215,0.0,3.0,23,0.00,,,0.00,meteohub,2013-07-10 17:37:00,
2013-07-10 10:42:00,82.2,38.5,29.90,SW,215,0.0,3.0,21,0.00,,,0.00,meteohub,2013-07-10 17:42:00,
2013-07-10 10:47:00,82.9,39.0,29.90,SSW,212,0.0,3.0,21,0.00,,,0.00,meteohub,2013-07-10 17:47:00,
2013-07-10 10:52:00,84.4,39.0,29.90,ESE,108,0.0,0.0,20,0.00,,,0.00,meteohub,2013-07-10 17:52:00,
2013-07-10 10:57:00,84.7,39.2,29.90,SW,236,0.0,0.0,20,0.00,,,0.00,meteohub,2013-07-10 17:57:00,
2013-07-10 11:02:00,85.3,39.7,29.89,NW,326,0.0,2.0,20,0.00,,,0.00,meteohub,2013-07-10 18:02:00,
2013-07-10 11:07:00,85.6,38.7,29.89,WNW,288,4.0,4.0,19,0.00,,,0.00,meteohub,2013-07-10 18:07:00,
2013-07-10 11:12:00,84.7,39.2,29.89,West,273,0.0,5.0,20,0.00,,,0.00,meteohub,2013-07-10 18:12:00,
2013-07-10 11:17:00,84.9,39.4,29.89,ENE,70,0.0,6.0,20,0.00,,,0.00,meteohub,2013-07-10 18:17:00,
2013-07-10 11:22:00,85.1,40.8,29.89,WSW,250,0.0,6.0,21,0.00,,,0.00,meteohub,2013-07-10 18:22:00,
2013-07-10 11:27:00,85.3,41.0,29.89,SSW,211,0.0,5.0,21,0.00,,,0.00,meteohub,2013-07-10 18:27:00,
2013-07-10 11:32:00,85.6,39.9,29.89,WNW,294,5.0,5.0,20,0.00,,,0.00,meteohub,2013-07-10 18:32:00,
2013-07-10 11:37:00,85.3,41.0,29.89,East,81,0.0,9.0,21,0.00,,,0.00,meteohub,2013-07-10 18:37:00,
2013-07-10 11:42:00,85.3,41.0,29.89,South,186,3.0,9.0,21,0.00,,,0.00,meteohub,2013-07-10 18:42:00,
2013-07-10 11:47:00,85.6,39.9,29.89,ENE,58,3.0,9.0,20,0.00,,,0.00,meteohub,2013-07-10 18:47:00,
2013-07-10 11:52:00,86.2,40.5,29.89,ESE,111,0.0,6.0,20,0.00,,,0.00,meteohub,2013-07-10 18:52:00,
2013-07-10 11:57:00,86.2,40.5,29.89,NW,304,4.0,4.0,20,0.00,,,0.00,meteohub,2013-07-10 18:57:00,
2013-07-10 12:02:00,85.5,41.0,29.89,NNW,348,0.0,8.0,21,0.00,,,0.00,meteohub,2013-07-10 19:02:00,
2013-07-10 12:07:00,86.2,40.5,29.89,SW,219,4.0,8.0,20,0.00,,,0.00,meteohub,2013-07-10 19:07:00,
2013-07-10 12:12:00,86.7,40.8,29.89,SW,231,1.0,8.0,20,0.00,,,0.00,meteohub,2013-07-10 19:12:00,
2013-07-10 12:17:00,86.9,38.3,29.89,WNW,298,4.0,7.0,18,0.00,,,0.00,meteohub,2013-07-10 19:17:00,
2013-07-10 12:22:00,86.9,39.7,29.88,NNW,327,0.0,7.0,19,0.00,,,0.00,meteohub,2013-07-10 19:22:00,
2013-07-10 12:27:00,87.4,41.4,29.89,WSW,250,0.0,7.0,20,0.00,,,0.00,meteohub,2013-07-10 19:27:00,
2013-07-10 12:32:00,88.3,40.8,29.89,West,278,2.0,6.0,19,0.00,,,0.00,meteohub,2013-07-10 19:32:00,
2013-07-10 12:37:00,88.0,39.2,29.88,SSE,162,0.0,6.0,18,0.00,,,0.00,meteohub,2013-07-10 19:37:00,
2013-07-10 12:42:00,87.4,40.1,29.88,WNW,293,0.0,6.0,19,0.00,,,0.00,meteohub,2013-07-10 19:42:00,
2013-07-10 12:47:00,87.3,42.6,29.88,SW,218,0.0,6.0,21,0.00,,,0.00,meteohub,2013-07-10 19:47:00,
2013-07-10 12:52:00,87.8,43.0,29.88,WNW,302,1.0,5.0,21,0.00,,,0.00,meteohub,2013-07-10 19:52:00,
2013-07-10 12:57:00,88.2,42.1,29.88,SW,214,1.0,5.0,20,0.00,,,0.00,meteohub,2013-07-10 19:57:00,
2013-07-10 13:02:00,88.2,53.8,29.88,ENE,69,1.0,5.0,31,0.00,,,0.00,meteohub,2013-07-10 20:02:00,
2013-07-10 13:07:00,87.3,51.1,29.87,ENE,71,0.0,5.0,29,0.00,,,0.00,meteohub,2013-07-10 20:07:00,
2013-07-10 13:12:00,84.6,55.4,29.87,ESE,117,1.0,3.0,37,0.00,,,0.00,meteohub,2013-07-10 20:12:00,
2013-07-10 13:17:00,82.6,56.5,29.87,ESE,104,0.0,5.0,41,0.00,,,0.00,meteohub,2013-07-10 20:17:00,
2013-07-10 13:22:00,83.1,56.3,29.87,SE,127,1.0,5.0,40,0.00,,,0.00,meteohub,2013-07-10 20:22:00,
2013-07-10 13:27:00,81.5,56.8,29.87,SSE,158,0.0,6.0,43,0.00,,,0.00,meteohub,2013-07-10 20:27:00,
2013-07-10 13:32:00,80.1,57.4,29.87,SSE,166,4.0,6.0,46,0.00,,,0.00,meteohub,2013-07-10 20:32:00,
2013-07-10 13:37:00,78.4,57.2,29.86,SSE,153,1.0,11.0,48,0.00,,,0.00,meteohub,2013-07-10 20:37:00,
2013-07-10 13:42:00,78.4,57.7,29.86,SE,134,0.0,11.0,49,0.00,,,0.00,meteohub,2013-07-10 20:42:00,
2013-07-10 13:47:00,78.6,57.2,29.86,SSE,166,0.0,11.0,48,0.00,,,0.00,meteohub,2013-07-10 20:47:00,
2013-07-10 13:52:00,78.8,57.4,29.86,South,173,0.0,3.0,48,0.00,,,0.00,meteohub,2013-07-10 20:52:00,
2013-07-10 14:02:00,79.7,57.0,29.86,ESE,105,0.0,5.0,46,0.00,,,0.00,meteohub,2013-07-10 21:02:00,
2013-07-10 14:07:00,80.2,56.3,29.86,ESE,110,0.0,3.0,44,0.00,,,0.00,meteohub,2013-07-10 21:07:00,
2013-07-10 14:12:00,80.2,58.1,29.86,ESE,119,0.0,1.0,47,0.00,,,0.00,meteohub,2013-07-10 21:12:00,
2013-07-10 14:17:00,80.6,56.7,29.86,ESE,114,0.0,2.0,44,0.00,,,0.00,meteohub,2013-07-10 21:17:00,
2013-07-10 14:22:00,81.9,53.1,29.85,SSE,160,1.0,3.0,37,0.00,,,0.00,meteohub,2013-07-10 21:22:00,
2013-07-10 14:27:00,82.8,53.1,29.85,East,101,0.0,3.0,36,0.00,,,0.00,meteohub,2013-07-10 21:27:00,
2013-07-10 14:32:00,84.4,51.3,29.86,SE,136,0.0,4.0,32,0.00,,,0.00,meteohub,2013-07-10 21:32:00,
2013-07-10 14:37:00,85.3,46.6,29.85,SSE,155,3.0,4.0,26,0.00,,,0.00,meteohub,2013-07-10 21:37:00,
2013-07-10 14:42:00,84.4,45.7,29.85,ESE,113,0.0,4.0,26,0.00,,,0.00,meteohub,2013-07-10 21:42:00,
2013-07-10 14:47:00,84.4,46.8,29.85,ESE,121,3.0,3.0,27,0.00,,,0.00,meteohub,2013-07-10 21:47:00,
2013-07-10 14:52:00,84.7,45.0,29.85,SE,130,1.0,5.0,25,0.00,,,0.00,meteohub,2013-07-10 21:52:00,
2013-07-10 14:57:00,84.6,56.1,29.85,ESE,114,2.0,5.0,38,0.00,,,0.00,meteohub,2013-07-10 21:57:00,
2013-07-10 15:02:00,83.1,56.3,29.85,ESE,108,1.0,5.0,40,0.00,,,0.00,meteohub,2013-07-10 22:02:00,
2013-07-10 15:07:00,82.0,55.4,29.84,East,92,0.0,3.0,40,0.00,,,0.00,meteohub,2013-07-10 22:07:00,
2013-07-10 15:12:00,82.4,55.6,29.84,SE,124,0.0,3.0,40,0.00,,,0.00,meteohub,2013-07-10 22:12:00,
2013-07-10 15:17:00,81.3,56.7,29.84,ESE,111,2.0,2.0,43,0.00,,,0.00,meteohub,2013-07-10 22:17:00,
2013-07-10 15:22:00,79.7,55.9,29.84,ESE,114,3.0,4.0,44,0.00,,,0.00,meteohub,2013-07-10 22:22:00,
2013-07-10 15:27:00,78.6,54.9,29.84,ESE,121,1.0,5.0,44,0.00,,,0.00,meteohub,2013-07-10 22:27:00,
2013-07-10 15:32:00,78.1,55.0,29.84,ESE,121,2.0,7.0,45,0.00,,,0.00,meteohub,2013-07-10 22:32:00,
2013-07-10 15:37:00,77.5,56.3,29.84,SSW,201,1.0,7.0,48,0.00,,,0.00,meteohub,2013-07-10 22:37:00,
2013-07-10 15:42:00,76.6,55.4,29.84,SW,215,2.0,5.0,48,0.00,,,0.00,meteohub,2013-07-10 22:42:00,
2013-07-10 15:47:00,75.9,56.5,29.83,SSW,195,2.0,5.0,51,0.00,,,0.00,meteohub,2013-07-10 22:47:00,
2013-07-10 15:52:00,75.4,55.4,29.83,SSW,203,1.0,7.0,50,0.00,,,0.00,meteohub,2013-07-10 22:52:00,
2013-07-10 15:57:00,75.4,55.4,29.83,South,172,1.0,7.0,50,0.00,,,0.00,meteohub,2013-07-10 22:57:00,
2013-07-10 16:02:00,75.6,55.0,29.83,SSE,160,0.0,7.0,49,0.00,,,0.00,meteohub,2013-07-10 23:02:00,
2013-07-10 16:07:00,75.7,55.2,29.83,SE,136,3.0,3.0,49,0.00,,,0.00,meteohub,2013-07-10 23:07:00,
2013-07-10 16:12:00,75.7,55.2,29.83,SE,143,0.0,4.0,49,0.00,,,0.00,meteohub,2013-07-10 23:12:00,
2013-07-10 16:17:00,76.1,55.0,29.83,East,98,4.0,4.0,48,0.00,,,0.00,meteohub,2013-07-10 23:17:00,
2013-07-10 16:22:00,75.9,55.4,29.82,South,170,1.0,7.0,49,0.00,,,0.00,meteohub,2013-07-10 23:22:00,
2013-07-10 16:27:00,75.9,55.4,29.82,South,169,0.0,7.0,49,0.00,,,0.00,meteohub,2013-07-10 23:27:00,
2013-07-10 16:32:00,76.6,55.4,29.82,South,177,0.0,7.0,48,0.00,,,0.00,meteohub,2013-07-10 23:32:00,
2013-07-10 16:37:00,76.8,55.6,29.82,SE,132,0.0,4.0,48,0.00,,,0.00,meteohub,2013-07-10 23:37:00,
2013-07-10 16:42:00,76.8,55.0,29.82,SE,144,1.0,2.0,47,0.00,,,0.00,meteohub,2013-07-10 23:42:00,
2013-07-10 16:47:00,76.5,55.4,29.82,ESE,109,0.0,4.0,48,0.00,,,0.00,meteohub,2013-07-10 23:47:00,
2013-07-10 16:52:00,75.7,55.2,29.82,ESE,114,1.0,4.0,49,0.00,,,0.00,meteohub,2013-07-10 23:52:00,
2013-07-10 16:57:00,75.4,55.4,29.82,ESE,121,1.0,7.0,50,0.00,,,0.00,meteohub,2013-07-10 23:57:00,
2013-07-10 17:02:00,75.4,54.3,29.82,ESE,104,0.0,7.0,48,0.00,,,0.00,meteohub,2013-07-11 00:02:00,
2013-07-10 17:07:00,75.7,54.1,29.81,East,101,0.0,7.0,47,0.00,,,0.00,meteohub,2013-07-11 00:07:00,
2013-07-10 17:12:00,75.7,55.8,29.81,South,190,1.0,4.0,50,0.00,,,0.00,meteohub,2013-07-11 00:12:00,
2013-07-10 17:17:00,75.0,56.1,29.81,ESE,107,1.0,5.0,52,0.00,,,0.00,meteohub,2013-07-11 00:17:00,
2013-07-10 17:22:00,74.3,56.7,29.81,SSE,163,1.0,8.0,54,0.00,,,0.00,meteohub,2013-07-11 00:22:00,
2013-07-10 17:27:00,74.1,56.5,29.81,South,173,1.0,8.0,54,0.00,,,0.00,meteohub,2013-07-11 00:27:00,
2013-07-10 17:32:00,74.1,55.9,29.81,WSW,243,2.0,7.0,53,0.00,,,0.00,meteohub,2013-07-11 00:32:00,
2013-07-10 17:37:00,73.6,56.8,29.81,SSE,166,1.0,7.0,56,0.00,,,0.00,meteohub,2013-07-11 00:37:00,
2013-07-10 17:42:00,72.7,56.5,29.81,SW,234,1.0,9.0,57,0.00,,,0.00,meteohub,2013-07-11 00:42:00,
2013-07-10 17:47:00,72.1,56.1,29.81,SE,127,3.0,9.0,57,0.00,,,0.00,meteohub,2013-07-11 00:47:00,
2013-07-10 17:52:00,72.0,55.9,29.80,SSW,206,1.0,9.0,57,0.00,,,0.00,meteohub,2013-07-11 00:52:00,
2013-07-10 17:57:00,72.0,55.4,29.81,SW,219,1.0,5.0,56,0.00,,,0.00,meteohub,2013-07-11 00:57:00,
2013-07-10 18:02:00,72.1,55.6,29.81,South,190,2.0,5.0,56,0.00,,,0.00,meteohub,2013-07-11 01:02:00,
2013-07-10 18:12:00,72.0,55.4,29.81,East,90,1.0,3.0,56,0.00,,,0.00,meteohub,2013-07-11 01:12:00,
2013-07-10 18:17:00,72.0,54.9,29.81,South,170,0.0,3.0,55,0.00,,,0.00,meteohub,2013-07-11 01:17:00,
2013-07-10 18:22:00,72.1,54.5,29.81,South,170,0.0,3.0,54,0.00,,,0.00,meteohub,2013-07-11 01:22:00,
2013-07-10 18:27:00,72.3,54.1,29.81,South,170,0.0,2.0,53,0.00,,,0.00,meteohub,2013-07-11 01:27:00,
2013-07-10 18:32:00,72.5,55.4,29.81,SSE,167,0.0,2.0,55,0.00,,,0.00,meteohub,2013-07-11 01:32:00,
2013-07-10 18:37:00,72.3,53.8,29.81,SSE,167,0.0,0.0,52,0.00,,,0.00,meteohub,2013-07-11 01:37:00,
2013-07-10 18:42:00,72.1,52.5,29.81,South,170,0.0,0.0,50,0.00,,,0.00,meteohub,2013-07-11 01:42:00,
2013-07-10 18:47:00,72.1,52.0,29.81,SE,139,0.0,0.0,49,0.00,,,0.00,meteohub,2013-07-11 01:47:00,
2013-07-10 18:52:00,72.1,52.0,29.81,SSE,150,0.0,2.0,49,0.00,,,0.00,meteohub,2013-07-11 01:52:00,
2013-07-10 19:02:00,72.1,50.7,29.81,South,188,0.0,2.0,47,0.00,,,0.00,meteohub,2013-07-11 02:02:00,
2013-07-10 19:07:00,72.3,51.4,29.82,SSE,160,0.0,1.0,48,0.00,,,0.00,meteohub,2013-07-11 02:07:00,
2013-07-10 19:12:00,72.3,51.4,29.82,SSE,156,0.0,1.0,48,0.00,,,0.00,meteohub,2013-07-11 02:12:00,
2013-07-10 19:17:00,72.3,50.9,29.82,SSE,160,0.0,0.0,47,0.00,,,0.00,meteohub,2013-07-11 02:17:00,
2013-07-10 19:22:00,72.3,51.4,29.82,South,172,0.0,0.0,48,0.00,,,0.00,meteohub,2013-07-11 02:22:00,
2013-07-10 19:27:00,72.1,51.4,29.82,South,170,0.0,0.0,48,0.00,,,0.00,meteohub,2013-07-11 02:27:00,
2013-07-10 19:32:00,72.0,51.8,29.82,South,170,0.0,0.0,49,0.00,,,0.00,meteohub,2013-07-11 02:32:00,
2013-07-10 19:37:00,71.8,51.6,29.82,South,169,0.0,0.0,49,0.00,,,0.00,meteohub,2013-07-11 02:37:00,
2013-07-10 19:42:00,71.8,52.2,29.82,South,170,0.0,0.0,50,0.00,,,0.00,meteohub,2013-07-11 02:42:00,
2013-07-10 19:47:00,71.6,49.1,29.83,South,172,0.0,0.0,45,0.00,,,0.00,meteohub,2013-07-11 02:47:00,
2013-07-10 19:52:00,71.8,49.8,29.83,South,172,0.0,0.0,46,0.00,,,0.00,meteohub,2013-07-11 02:52:00,
2013-07-10 19:57:00,71.8,49.3,29.83,South,172,0.0,0.0,45,0.00,,,0.00,meteohub,2013-07-11 02:57:00,
2013-07-10 20:02:00,71.8,49.3,29.83,South,172,0.0,0.0,45,0.00,,,0.00,meteohub,2013-07-11 03:02:00,
2013-07-10 20:07:00,71.8,49.3,29.83,South,172,0.0,0.0,45,0.00,,,0.00,meteohub,2013-07-11 03:07:00,
2013-07-10 20:12:00,71.8,48.7,29.83,South,172,0.0,0.0,44,0.00,,,0.00,meteohub,2013-07-11 03:12:00,
2013-07-10 20:17:00,71.8,48.0,29.83,South,173,0.0,0.0,43,0.00,,,0.00,meteohub,2013-07-11 03:17:00,
2013-07-10 20:22:00,71.8,48.0,29.83,South,172,0.0,0.0,43,0.00,,,0.00,meteohub,2013-07-11 03:22:00,
2013-07-10 20:27:00,71.8,48.0,29.83,South,172,0.0,0.0,43,0.00,,,0.00,meteohub,2013-07-11 03:27:00,
2013-07-10 20:32:00,71.8,48.0,29.83,South,172,0.0,0.0,43,0.00,,,0.00,meteohub,2013-07-11 03:32:00,
2013-07-10 20:37:00,71.8,48.0,29.83,South,173,0.0,0.0,43,0.00,,,0.00,meteohub,2013-07-11 03:37:00,
2013-07-10 20:42:00,71.8,48.0,29.83,South,172,0.0,0.0,43,0.00,,,0.00,meteohub,2013-07-11 03:42:00,
2013-07-10 20:47:00,71.6,47.8,29.83,SE,137,0.0,0.0,43,0.00,,,0.00,meteohub,2013-07-11 03:47:00,
2013-07-10 20:57:00,72.0,46.9,29.83,SE,138,0.0,0.0,41,0.00,,,0.00,meteohub,2013-07-11 03:57:00,
2013-07-10 21:02:00,72.0,46.9,29.84,SE,138,0.0,0.0,41,0.00,,,0.00,meteohub,2013-07-11 04:02:00,
2013-07-10 21:07:00,72.0,46.4,29.84,SE,138,0.0,0.0,40,0.00,,,0.00,meteohub,2013-07-11 04:07:00,
2013-07-10 21:12:00,72.1,46.4,29.84,SE,138,0.0,0.0,40,0.00,,,0.00,meteohub,2013-07-11 04:12:00,
2013-07-10 21:17:00,72.1,45.9,29.84,SE,138,0.0,0.0,39,0.00,,,0.00,meteohub,2013-07-11 04:17:00,
2013-07-10 21:22:00,72.1,45.9,29.84,SE,138,0.0,0.0,39,0.00,,,0.00,meteohub,2013-07-11 04:22:00,
2013-07-10 21:27:00,72.0,45.7,29.84,SE,138,0.0,0.0,39,0.00,,,0.00,meteohub,2013-07-11 04:27:00,
2013-07-10 21:32:00,72.0,46.4,29.84,SE,139,0.0,0.0,40,0.00,,,0.00,meteohub,2013-07-11 04:32:00,
2013-07-10 21:37:00,72.0,45.7,29.85,SE,139,0.0,0.0,39,0.00,,,0.00,meteohub,2013-07-11 04:37:00,
2013-07-10 21:42:00,71.8,45.5,29.85,SE,139,0.0,0.0,39,0.00,,,0.00,meteohub,2013-07-11 04:42:00,
2013-07-10 21:47:00,71.8,44.8,29.85,SE,139,0.0,0.0,38,0.00,,,0.00,meteohub,2013-07-11 04:47:00,
2013-07-10 21:52:00,71.8,45.5,29.85,SE,139,0.0,0.0,39,0.00,,,0.00,meteohub,2013-07-11 04:52:00,
2013-07-10 21:57:00,71.6,44.6,29.85,SE,139,0.0,0.0,38,0.00,,,0.00,meteohub,2013-07-11 04:57:00,
2013-07-10 22:02:00,71.8,44.8,29.85,SE,139,0.0,0.0,38,0.00,,,0.00,meteohub,2013-07-11 05:02:00,
2013-07-10 22:07:00,71.8,44.1,29.85,SE,139,0.0,0.0,37,0.00,,,0.00,meteohub,2013-07-11 05:07:00,
2013-07-10 22:12:00,72.0,45.0,29.85,South,179,0.0,0.0,38,0.00,,,0.00,meteohub,2013-07-11 05:12:00,
2013-07-10 22:17:00,72.0,44.2,29.85,South,179,0.0,0.0,37,0.00,,,0.00,meteohub,2013-07-11 05:17:00,
2013-07-10 22:22:00,71.8,44.1,29.85,South,179,0.0,0.0,37,0.00,,,0.00,meteohub,2013-07-11 05:22:00,
2013-07-10 22:27:00,71.6,43.9,29.85,South,179,0.0,0.0,37,0.00,,,0.00,meteohub,2013-07-11 05:27:00,
2013-07-10 22:32:00,71.4,43.7,29.86,South,179,0.0,0.0,37,0.00,,,0.00,meteohub,2013-07-11 05:32:00,
2013-07-10 22:37:00,71.2,43.0,29.85,South,179,0.0,0.0,36,0.00,,,0.00,meteohub,2013-07-11 05:37:00,
2013-07-10 22:42:00,71.2,43.0,29.85,South,181,0.0,0.0,36,0.00,,,0.00,meteohub,2013-07-11 05:42:00,
2013-07-10 22:47:00,71.2,43.0,29.85,South,181,0.0,0.0,36,0.00,,,0.00,meteohub,2013-07-11 05:47:00,
2013-07-10 22:52:00,71.1,42.8,29.85,South,183,0.0,0.0,36,0.00,,,0.00,meteohub,2013-07-11 05:52:00,
2013-07-10 22:57:00,71.1,42.8,29.85,South,181,0.0,0.0,36,0.00,,,0.00,meteohub,2013-07-11 05:57:00,
2013-07-10 23:02:00,70.9,42.6,29.86,South,183,0.0,0.0,36,0.00,,,0.00,meteohub,2013-07-11 06:02:00,
2013-07-10 23:07:00,70.9,43.3,29.86,South,181,0.0,0.0,37,0.00,,,0.00,meteohub,2013-07-11 06:07:00,
2013-07-10 23:12:00,70.9,42.6,29.86,West,263,0.0,0.0,36,0.00,,,0.00,meteohub,2013-07-11 06:12:00,
2013-07-10 23:17:00,71.1,43.5,29.86,West,263,0.0,0.0,37,0.00,,,0.00,meteohub,2013-07-11 06:17:00,
2013-07-10 23:22:00,70.5,43.7,29.86,West,262,0.0,0.0,38,0.00,,,0.00,meteohub,2013-07-11 06:22:00,
2013-07-10 23:27:00,70.2,43.3,29.86,West,263,0.0,0.0,38,0.00,,,0.00,meteohub,2013-07-11 06:27:00,
2013-07-10 23:32:00,70.2,43.3,29.86,West,260,0.0,0.0,38,0.00,,,0.00,meteohub,2013-07-11 06:32:00,
2013-07-10 23:37:00,70.2,43.3,29.86,NW,326,0.0,0.0,38,0.00,,,0.00,meteohub,2013-07-11 06:37:00,
2013-07-10 23:42:00,70.0,43.2,29.86,NW,326,0.0,0.0,38,0.00,,,0.00,meteohub,2013-07-11 06:42:00,
2013-07-10 23:47:00,69.8,42.4,29.86,NW,326,0.0,0.0,37,0.00,,,0.00,meteohub,2013-07-11 06:47:00,
2013-07-10 23:52:00,70.0,42.4,29.86,NW,326,0.0,0.0,37,0.00,,,0.00,meteohub,2013-07-11 06:52:00,
2013-07-10 23:57:00,70.0,42.4,29.86,NNE,15,0.0,0.0,37,0.00,,,0.00,meteohub,2013-07-11 06:57:00,